Location: Antioch
(38.0049°N, 121.8058°W)
Time: 01:57:12
(UTC+00:00)

USA 215 - Pass Details

Date: 11 February 2026
Orbit: 1098 x 1109 km, 123.0° (Epoch: 10 January)

Event Time Altitude Azimuth Distance (km) Brightness Sun altitude
Rises 13:12:16 0° 109° (ESE) 3,923 7.4 -22.0°
Reaches altitude 10° 13:14:52 10° 103° (ESE) 2,967 6.6 -21.5°
Maximum altitude 13:20:59 44° 34° (NE) 1,502 4.2 -20.3°
Enters shadow 13:26:58 11° 326° (NW) 2,922 5.1 -19.2°
